| time (UTC) | temp F | wind direction | speed MPH | gust MPH | rain 1hr in | rain 24hr in | rain mn in | humidity % | barometer mb |
| 20260903064009 | 78 | 143 | 0.0 | 0.0 | 0.00 | 0.00 | 0.00 | 95 | 1018.1 |
| 20260903063504 | 78 | 143 | 0.0 | 0.0 | 0.00 | 0.00 | 0.00 | 95 | 1018.3 |
| 20260903063000 | 78 | 143 | 0.0 | 0.0 | 0.00 | 0.00 | 0.00 | 95 | 1018.3 |
| 20260903062454 | 78 | 143 | 0.0 | 0.0 | 0.00 | 0.00 | 0.00 | 95 | 1018.4 |
| 20260903061949 | 78 | 143 | 0.0 | 0.0 | 0.00 | 0.00 | 0.00 | 94 | 1018.3 |
| 20260903061444 | 78 | 143 | 0.0 | 0.0 | 0.00 | 0.00 | 0.00 | 94 | 1018.7 |
| 20260903060939 | 78 | 143 | 0.0 | 0.0 | 0.00 | 0.00 | 0.00 | 94 | 1018.6 |
| 20260903060434 | 78 | 143 | 0.0 | 0.0 | 0.00 | 0.00 | 0.00 | 94 | 1018.5 |
| 20260903055933 | 78 | 143 | 0.0 | 0.0 | 0.00 | 0.00 | 0.00 | 94 | 1018.6 |
| 20260903055430 | 78 | 143 | 0.0 | 0.0 | 0.00 | 0.00 | 0.00 | 94 | 1018.7 |
| 20260903054925 | 78 | 143 | 0.0 | 0.0 | 0.00 | 0.00 | 0.00 | 94 | 1019.0 |
| 20260903054420 | 78 | 143 | 0.0 | 0.0 | 0.00 | 0.00 | 0.00 | 94 | 1018.8 |
| 20260903053916 | 78 | 143 | 0.0 | 0.0 | 0.00 | 0.00 | 0.00 | 94 | 1018.9 |
| 20260903053416 | 78 | 143 | 0.0 | 0.0 | 0.00 | 0.00 | 0.00 | 94 | 1018.7 |
| 20260903052912 | 79 | 143 | 0.0 | 0.0 | 0.00 | 0.00 | 0.00 | 94 | 1018.8 |
| 20260903052408 | 79 | 143 | 0.0 | 0.0 | 0.00 | 0.00 | 0.00 | 94 | 1018.9 |
| 20260903051903 | 79 | 143 | 0.0 | 0.0 | 0.00 | 0.00 | 0.00 | 94 | 1019.1 |
| 20260903051359 | 78 | 143 | 0.0 | 0.0 | 0.00 | 0.00 | 0.00 | 94 | 1019.0 |
| 20260903050854 | 78 | 143 | 0.0 | 0.0 | 0.00 | 0.00 | 0.00 | 94 | 1019.0 |
| 20260903050352 | 79 | 143 | 0.0 | 0.0 | 0.00 | 0.00 | 0.00 | 94 | 1018.9 |
| 20260903045847 | 79 | 143 | 0.0 | 0.0 | 0.00 | 0.00 | 0.00 | 94 | 1019.1 |
| 20260903045343 | 79 | 143 | 0.0 | 0.0 | 0.00 | 0.00 | 0.00 | 94 | 1019.2 |
| 20260903044840 | 79 | 143 | 0.0 | 0.0 | 0.00 | 0.00 | 0.00 | 93 | 1019.1 |
| 20260903044340 | 79 | 143 | 0.0 | 0.0 | 0.00 | 0.00 | 0.00 | 93 | 1019.2 |
| 20260903043836 | 79 | 143 | 0.0 | 0.0 | 0.00 | 0.00 | 0.00 | 93 | 1019.6 |
| 20260903043331 | 79 | 143 | 0.0 | 0.0 | 0.00 | 0.00 | 0.00 | 93 | 1019.4 |
| 20260903042830 | 79 | 143 | 0.0 | 0.0 | 0.00 | 0.00 | 0.00 | 93 | 1019.5 |
| 20260903042325 | 79 | 143 | 0.0 | 0.0 | 0.00 | 0.00 | 0.00 | 93 | 1019.2 |
| 20260903041822 | 79 | 143 | 0.0 | 0.0 | 0.00 | 0.00 | 0.00 | 93 | 1019.0 |
| 20260903041318 | 79 | 143 | 0.0 | 0.0 | 0.00 | 0.00 | 0.00 | 93 | 1019.4 |
| 20260903040813 | 79 | 143 | 0.0 | 0.0 | 0.00 | 0.00 | 0.00 | 93 | 1019.2 |
| 20260903040312 | 79 | 144 | 0.0 | 0.0 | 0.00 | 0.00 | 0.00 | 93 | 1019.4 |
| 20260903035808 | 79 | 144 | 0.0 | 0.0 | 0.00 | 0.03 | 0.03 | 93 | 1019.3 |
| 20260903035306 | 79 | 153 | 0.0 | 0.0 | 0.00 | 0.03 | 0.03 | 93 | 1019.3 |
| 20260903034759 | 79 | 160 | 0.0 | 0.0 | 0.00 | 0.03 | 0.03 | 93 | 1019.2 |
| 20260903034253 | 79 | 161 | 0.0 | 0.0 | 0.00 | 0.03 | 0.03 | 93 | 1019.4 |
| 20260903033749 | 79 | 160 | 0.0 | 0.0 | 0.00 | 0.03 | 0.03 | 93 | 1019.4 |
| 20260903033244 | 79 | 146 | 0.0 | 0.0 | 0.00 | 0.03 | 0.03 | 93 | 1019.6 |
| 20260903032738 | 79 | 145 | 0.0 | 0.0 | 0.00 | 0.03 | 0.03 | 92 | 1019.5 |
| 20260903032234 | 79 | 145 | 0.0 | 0.0 | 0.00 | 0.03 | 0.03 | 92 | 1019.4 |
| 20260903031729 | 80 | 145 | 0.0 | 0.0 | 0.00 | 0.03 | 0.03 | 92 | 1019.0 |
| 20260903031223 | 80 | 147 | 0.0 | 0.0 | 0.00 | 0.03 | 0.03 | 92 | 1019.4 |
| 20260903030719 | 80 | 148 | 0.0 | 0.0 | 0.00 | 0.03 | 0.03 | 92 | 1019.7 |
| 20260903030215 | 80 | 149 | 0.0 | 0.0 | 0.00 | 0.03 | 0.03 | 92 | 1019.6 |
| 20260903025710 | 80 | 148 | 0.0 | 0.0 | 0.00 | 0.03 | 0.03 | 91 | 1019.5 |
| 20260903025206 | 80 | 146 | 0.0 | 0.0 | 0.00 | 0.03 | 0.03 | 91 | 1019.5 |
| 20260903024706 | 80 | 148 | 0.0 | 0.0 | 0.00 | 0.03 | 0.03 | 91 | 1019.3 |
| 20260903024205 | 80 | 150 | 0.0 | 0.0 | 0.00 | 0.03 | 0.03 | 91 | 1019.5 |
| 20260903023701 | 80 | 136 | 0.0 | 0.0 | 0.00 | 0.03 | 0.03 | 91 | 1019.6 |
| 20260903023156 | 80 | 150 | 0.0 | 0.0 | 0.00 | 0.03 | 0.03 | 91 | 1019.6 |
| 20260903022655 | 80 | 144 | 0.0 | 0.0 | 0.00 | 0.03 | 0.03 | 90 | 1019.5 |
| 20260903022150 | 80 | 148 | 0.0 | 0.0 | 0.00 | 0.03 | 0.03 | 90 | 1019.5 |
| 20260903021649 | 80 | 133 | 0.0 | 0.0 | 0.00 | 0.03 | 0.03 | 90 | 1019.5 |
| 20260903021144 | 80 | 118 | 0.0 | 0.0 | 0.00 | 0.03 | 0.03 | 90 | 1019.6 |
| 20260903020639 | 80 | 145 | 0.0 | 0.0 | 0.00 | 0.03 | 0.03 | 89 | 1019.5 |
| 20260903020134 | 81 | 146 | 0.0 | 0.0 | 0.00 | 0.03 | 0.03 | 89 | 1019.6 |
| 20260903015630 | 81 | 147 | 0.0 | 0.0 | 0.00 | 0.03 | 0.03 | 89 | 1019.4 |
| 20260903015125 | 81 | 125 | 0.0 | 1.0 | 0.00 | 0.03 | 0.03 | 89 | 1019.5 |
| 20260903014624 | 81 | 150 | 0.0 | 0.0 | 0.00 | 0.03 | 0.03 | 89 | 1019.3 |
| 20260903014124 | 81 | 159 | 0.0 | 0.0 | 0.00 | 0.03 | 0.03 | 89 | 1019.4 |
| 20260903013619 | 81 | 139 | 0.0 | 0.0 | 0.00 | 0.03 | 0.03 | 89 | 1019.1 |
| 20260903013114 | 81 | 124 | 2.0 | 2.0 | 0.00 | 0.03 | 0.03 | 90 | 1019.4 |
| 20260903012612 | 81 | 140 | 0.0 | 0.0 | 0.00 | 0.03 | 0.03 | 90 | 1019.5 |
| 20260903012111 | 81 | 133 | 1.0 | 1.0 | 0.00 | 0.03 | 0.03 | 91 | 1019.2 |
| 20260903011606 | 81 | 111 | 0.0 | 1.0 | 0.00 | 0.03 | 0.03 | 91 | 1019.4 |
| 20260903011106 | 81 | 140 | 0.0 | 1.0 | 0.00 | 0.03 | 0.03 | 91 | 1019.3 |
| 20260903010601 | 81 | 145 | 0.0 | 0.0 | 0.00 | 0.03 | 0.03 | 91 | 1019.3 |
| 20260903010059 | 81 | 149 | 0.0 | 0.0 | 0.00 | 0.03 | 0.03 | 91 | 1019.2 |
| 20260903005554 | 81 | 143 | 0.0 | 0.0 | 0.00 | 0.03 | 0.03 | 91 | 1019.4 |
| 20260903005049 | 81 | 147 | 0.0 | 0.0 | 0.00 | 0.03 | 0.03 | 91 | 1019.1 |
| 20260903004544 | 81 | 147 | 0.0 | 0.0 | 0.00 | 0.03 | 0.03 | 90 | 1019.2 |
| 20260903004040 | 82 | 149 | 0.0 | 0.0 | 0.00 | 0.03 | 0.03 | 90 | 1019.2 |
| 20260903003535 | 82 | 149 | 0.0 | 1.0 | 0.00 | 0.03 | 0.03 | 90 | 1019.3 |
| 20260903003030 | 82 | 148 | 0.0 | 0.0 | 0.00 | 0.03 | 0.03 | 90 | 1019.4 |
| 20260903002530 | 82 | 141 | 0.0 | 0.0 | 0.00 | 0.03 | 0.03 | 90 | 1019.3 |
| 20260903002019 | 82 | 142 | 0.0 | 0.0 | 0.00 | 0.03 | 0.03 | 90 | 1019.2 |
| 20260903001514 | 82 | 150 | 0.0 | 0.0 | 0.00 | 0.03 | 0.03 | 90 | 1019.1 |
| 20260903001014 | 82 | 146 | 0.0 | 0.0 | 0.00 | 0.03 | 0.03 | 90 | 1019.0 |
| 20260903000509 | 82 | 147 | 0.0 | 0.0 | 0.00 | 0.03 | 0.03 | 90 | 1019.0 |
| 20260903000008 | 82 | 149 | 0.0 | 1.0 | 0.00 | 0.03 | 0.03 | 89 | 1019.0 |
| 20260902235502 | 82 | 156 | 0.0 | 1.0 | 0.00 | 0.03 | 0.03 | 90 | 1019.0 |
| 20260902234957 | 82 | 148 | 0.0 | 0.0 | 0.00 | 0.03 | 0.03 | 89 | 1019.1 |
| 20260902234452 | 82 | 144 | 0.0 | 0.0 | 0.00 | 0.03 | 0.03 | 89 | 1019.0 |
| 20260902233950 | 82 | 147 | 0.0 | 0.0 | 0.00 | 0.03 | 0.03 | 89 | 1018.9 |
| 20260902233450 | 82 | 142 | 0.0 | 0.0 | 0.00 | 0.03 | 0.03 | 89 | 1018.9 |
| 20260902232945 | 82 | 140 | 0.0 | 0.0 | 0.00 | 0.03 | 0.03 | 89 | 1018.8 |
| 20260902232439 | 82 | 159 | 0.0 | 0.0 | 0.00 | 0.03 | 0.03 | 89 | 1018.9 |
| 20260902231938 | 82 | 137 | 1.0 | 1.0 | 0.00 | 0.03 | 0.03 | 89 | 1018.7 |
| 20260902231434 | 82 | 124 | 2.0 | 2.0 | 0.00 | 0.03 | 0.03 | 89 | 1018.4 |
| 20260902230928 | 82 | 128 | 0.0 | 0.0 | 0.00 | 0.03 | 0.03 | 89 | 1018.6 |
| 20260902230427 | 82 | 144 | 0.0 | 0.0 | 0.00 | 0.03 | 0.03 | 89 | 1018.7 |
| 20260902225922 | 82 | 120 | 2.0 | 2.0 | 0.00 | 0.03 | 0.03 | 88 | 1018.6 |
| 20260902225417 | 82 | 117 | 0.0 | 0.0 | 0.00 | 0.03 | 0.03 | 88 | 1018.9 |
| 20260902224916 | 82 | 149 | 1.0 | 1.0 | 0.00 | 0.03 | 0.03 | 88 | 1018.8 |
| 20260902224415 | 82 | 140 | 1.0 | 1.0 | 0.00 | 0.03 | 0.03 | 88 | 1018.7 |
| 20260902223912 | 82 | 152 | 1.0 | 2.0 | 0.00 | 0.03 | 0.03 | 88 | 1018.6 |
| 20260902223407 | 82 | 143 | 1.0 | 1.0 | 0.00 | 0.03 | 0.03 | 88 | 1018.6 |
| 20260902222901 | 82 | 93 | 2.0 | 2.0 | 0.00 | 0.03 | 0.03 | 87 | 1018.4 |
| 20260902222359 | 82 | 79 | 2.0 | 3.0 | 0.00 | 0.03 | 0.03 | 87 | 1018.4 |
| 20260902221854 | 82 | 145 | 0.0 | 0.0 | 0.00 | 0.03 | 0.03 | 88 | 1018.4 |
| 20260902221353 | 83 | 122 | 1.0 | 1.0 | 0.00 | 0.03 | 0.03 | 87 | 1018.8 |
| 20260902220849 | 83 | 91 | 1.0 | 1.0 | 0.00 | 0.03 | 0.03 | 87 | 1018.4 |
| 20260902220348 | 83 | 151 | 0.0 | 0.0 | 0.00 | 0.03 | 0.03 | 87 | 1018.5 |
| 20260902215843 | 83 | 150 | 0.0 | 0.0 | 0.00 | 0.03 | 0.03 | 87 | 1018.6 |
| 20260902215338 | 83 | 109 | 1.0 | 2.0 | 0.00 | 0.03 | 0.03 | 87 | 1018.6 |
| 20260902214834 | 83 | 140 | 0.0 | 1.0 | 0.00 | 0.03 | 0.03 | 87 | 1018.8 |
| 20260902214333 | 83 | 126 | 1.0 | 1.0 | 0.00 | 0.03 | 0.03 | 87 | 1018.7 |
| 20260902213828 | 83 | 148 | 0.0 | 0.0 | 0.00 | 0.03 | 0.03 | 88 | 1018.7 |
| 20260902213324 | 83 | 130 | 1.0 | 2.0 | 0.00 | 0.03 | 0.03 | 88 | 1018.5 |
| 20260902212822 | 83 | 155 | 0.0 | 1.0 | 0.00 | 0.03 | 0.03 | 88 | 1018.8 |
| 20260902212319 | 83 | 146 | 1.0 | 1.0 | 0.00 | 0.03 | 0.03 | 89 | 1018.6 |
| 20260902211815 | 83 | 126 | 1.0 | 2.0 | 0.00 | 0.03 | 0.03 | 88 | 1018.7 |
| 20260902211311 | 83 | 114 | 0.0 | 0.0 | 0.00 | 0.03 | 0.03 | 89 | 1018.6 |
| 20260902210806 | 83 | 150 | 0.0 | 0.0 | 0.00 | 0.03 | 0.03 | 90 | 1018.9 |
| 20260902210301 | 83 | 148 | 0.0 | 1.0 | 0.00 | 0.03 | 0.03 | 89 | 1018.8 |
| 20260902205759 | 83 | 135 | 0.0 | 0.0 | 0.00 | 0.03 | 0.03 | 89 | 1018.6 |
| 20260902205254 | 82 | 146 | 0.0 | 0.0 | 0.00 | 0.03 | 0.03 | 88 | 1018.8 |
| 20260902204749 | 82 | 150 | 0.0 | 0.0 | 0.05 | 0.03 | 0.03 | 88 | 1018.9 |
| 20260902204244 | 82 | 139 | 1.0 | 2.0 | 0.05 | 0.03 | 0.03 | 86 | 1019.0 |
| 20260902203745 | 84 | 138 | 3.0 | 3.0 | 0.00 | 0.02 | 0.02 | 84 | 1018.9 |
| 20260902203245 | 84 | 96 | 2.0 | 3.0 | 0.00 | 0.02 | 0.02 | 82 | 1019.2 |
| 20260902202740 | 85 | 137 | 1.0 | 1.0 | 0.00 | 0.02 | 0.02 | 82 | 1018.8 |
| 20260902202236 | 85 | 135 | 0.0 | 1.0 | 0.00 | 0.02 | 0.02 | 82 | 1019.0 |
| 20260902201733 | 85 | 136 | 2.0 | 2.0 | 0.00 | 0.02 | 0.02 | 82 | 1018.8 |
| 20260902201231 | 85 | 91 | 1.0 | 2.0 | 0.00 | 0.02 | 0.02 | 81 | 1018.7 |
| 20260902200727 | 86 | 72 | 1.0 | 1.0 | 0.00 | 0.02 | 0.02 | 81 | 1018.4 |
| 20260902200223 | 85 | 109 | 2.0 | 2.0 | 0.00 | 0.02 | 0.02 | 80 | 1018.9 |
| 20260902195718 | 86 | 137 | 2.0 | 2.0 | 0.00 | 0.02 | 0.02 | 80 | 1019.0 |
| 20260902195217 | 86 | 118 | 4.0 | 7.0 | 0.00 | 0.02 | 0.02 | 80 | 1019.0 |
| 20260902194717 | 85 | 87 | 2.0 | 3.0 | 0.00 | 0.02 | 0.02 | 81 | 1019.1 |
| 20260902194212 | 86 | 156 | 1.0 | 1.0 | 0.00 | 0.02 | 0.02 | 80 | 1018.9 |
| 20260902193707 | 87 | 162 | 1.0 | 1.0 | 0.00 | 0.02 | 0.02 | 79 | 1018.8 |
| 20260902193203 | 87 | 82 | 3.0 | 3.0 | 0.00 | 0.02 | 0.02 | 80 | 1018.8 |
| 20260902192701 | 88 | 81 | 3.0 | 5.0 | 0.00 | 0.02 | 0.02 | 78 | 1018.8 |
| 20260902192200 | 87 | 149 | 1.0 | 1.0 | 0.00 | 0.02 | 0.02 | 80 | 1019.1 |
| 20260902191655 | 87 | 147 | 0.0 | 1.0 | 0.00 | 0.02 | 0.02 | 81 | 1018.8 |
| 20260902191149 | 88 | 62 | 4.0 | 6.0 | 0.00 | 0.02 | 0.02 | 79 | 1019.0 |
| 20260902190645 | 87 | 94 | 0.0 | 0.0 | 0.00 | 0.02 | 0.02 | 82 | 1018.9 |
| 20260902190140 | 85 | 138 | 1.0 | 1.0 | 0.00 | 0.02 | 0.02 | 83 | 1019.0 |
| 20260902185636 | 85 | 117 | 1.0 | 1.0 | 0.00 | 0.02 | 0.02 | 84 | 1019.1 |
| 20260902185131 | 85 | 134 | 0.0 | 1.0 | 0.00 | 0.02 | 0.02 | 86 | 1019.2 |
| 20260902184626 | 84 | 143 | 0.0 | 1.0 | 0.00 | 0.02 | 0.02 | 87 | 1019.0 |
| 20260902184122 | 84 | 139 | 1.0 | 1.0 | 0.00 | 0.02 | 0.02 | 86 | 1019.1 |
| 20260902183618 | 83 | 145 | 0.0 | 1.0 | 0.00 | 0.02 | 0.02 | 87 | 1019.4 |
| 20260902183114 | 83 | 125 | 1.0 | 1.0 | 0.00 | 0.02 | 0.02 | 88 | 1019.3 |
| 20260902182610 | 85 | 121 | 2.0 | 5.0 | 0.00 | 0.02 | 0.02 | 86 | 1019.4 |
| 20260902182106 | 88 | 97 | 7.0 | 8.0 | 0.00 | 0.02 | 0.02 | 80 | 1019.4 |
| 20260902181602 | 89 | 121 | 2.0 | 2.0 | 0.00 | 0.02 | 0.02 | 73 | 1019.3 |
| 20260902181101 | 89 | 129 | 3.0 | 3.0 | 0.00 | 0.02 | 0.02 | 75 | 1019.1 |
| 20260902180601 | 90 | 115 | 3.0 | 3.0 | 0.00 | 0.02 | 0.02 | 73 | 1019.2 |
| 20260902180057 | 90 | 55 | 4.0 | 6.0 | 0.00 | 0.02 | 0.02 | 73 | 1019.6 |
| 20260902175556 | 89 | 80 | 5.0 | 6.0 | 0.00 | 0.02 | 0.02 | 75 | 1019.6 |
| 20260902175053 | 89 | 173 | 2.0 | 3.0 | 0.00 | 0.02 | 0.02 | 76 | 1019.5 |
| 20260902174548 | 88 | 121 | 1.0 | 2.0 | 0.00 | 0.02 | 0.02 | 76 | 1019.7 |
| 20260902174044 | 88 | 89 | 0.0 | 0.0 | 0.00 | 0.02 | 0.02 | 76 | 1019.6 |
| 20260902173543 | 89 | 99 | 3.0 | 3.0 | 0.00 | 0.02 | 0.02 | 76 | 1019.7 |
| 20260902173039 | 90 | 166 | 1.0 | 1.0 | 0.00 | 0.02 | 0.02 | 74 | 1019.7 |
| 20260902172533 | 90 | 151 | 1.0 | 1.0 | 0.00 | 0.02 | 0.02 | 75 | 1019.9 |
| 20260902172028 | 89 | 158 | 3.0 | 5.0 | 0.00 | 0.02 | 0.02 | 74 | 1019.9 |
| 20260902171524 | 89 | 182 | 2.0 | 2.0 | 0.00 | 0.02 | 0.02 | 74 | 1019.9 |
| 20260902171019 | 89 | 116 | 1.0 | 2.0 | 0.00 | 0.02 | 0.02 | 76 | 1020.0 |
| 20260902170514 | 89 | 142 | 1.0 | 3.0 | 0.00 | 0.02 | 0.02 | 74 | 1020.1 |
| 20260902170010 | 89 | 140 | 0.0 | 1.0 | 0.00 | 0.02 | 0.02 | 76 | 1020.0 |
| 20260902165509 | 91 | 140 | 1.0 | 1.0 | 0.00 | 0.02 | 0.02 | 73 | 1020.0 |
| 20260902165004 | 90 | 173 | 2.0 | 2.0 | 0.00 | 0.02 | 0.02 | 75 | 1020.0 |
| 20260902164459 | 90 | 1 | 2.0 | 3.0 | 0.00 | 0.02 | 0.02 | 74 | 1020.0 |
| 20260902163958 | 89 | 134 | 2.0 | 3.0 | 0.00 | 0.02 | 0.02 | 74 | 1019.9 |
| 20260902163454 | 88 | 130 | 1.0 | 2.0 | 0.00 | 0.02 | 0.02 | 76 | 1019.8 |
| 20260902162951 | 88 | 22 | 1.0 | 2.0 | 0.00 | 0.02 | 0.02 | 76 | 1019.8 |
| 20260902162446 | 88 | 137 | 0.0 | 1.0 | 0.00 | 0.02 | 0.02 | 78 | 1020.1 |
| 20260902161941 | 88 | 115 | 2.0 | 2.0 | 0.00 | 0.02 | 0.02 | 77 | 1019.8 |
| 20260902161436 | 88 | 110 | 2.0 | 2.0 | 0.00 | 0.02 | 0.02 | 78 | 1020.1 |
| 20260902160932 | 88 | 155 | 2.0 | 2.0 | 0.00 | 0.02 | 0.02 | 78 | 1020.2 |
| 20260902160427 | 87 | 107 | 1.0 | 1.0 | 0.00 | 0.02 | 0.02 | 79 | 1019.8 |
| 20260902155925 | 86 | 119 | 3.0 | 3.0 | 0.00 | 0.02 | 0.02 | 80 | 1020.1 |
| 20260902155421 | 87 | 120 | 2.0 | 3.0 | 0.00 | 0.02 | 0.02 | 79 | 1020.5 |
| 20260902154914 | 89 | 317 | 1.0 | 2.0 | 0.00 | 0.02 | 0.02 | 78 | 1020.5 |
| 20260902154410 | 88 | 118 | 1.0 | 2.0 | 0.00 | 0.02 | 0.02 | 77 | 1020.5 |
| 20260902153903 | 88 | 141 | 2.0 | 3.0 | 0.00 | 0.02 | 0.02 | 79 | 1020.8 |
| 20260902153403 | 86 | 137 | 1.0 | 2.0 | 0.00 | 0.02 | 0.02 | 80 | 1020.5 |
| 20260902152858 | 86 | 117 | 1.0 | 1.0 | 0.00 | 0.02 | 0.02 | 82 | 1020.8 |
| 20260902152354 | 86 | 100 | 1.0 | 2.0 | 0.00 | 0.02 | 0.02 | 81 | 1020.9 |
| 20260902151850 | 86 | 107 | 1.0 | 1.0 | 0.00 | 0.02 | 0.02 | 80 | 1021.1 |
| 20260902151345 | 87 | 151 | 0.0 | 1.0 | 0.00 | 0.02 | 0.02 | 80 | 1021.0 |
| 20260902150839 | 87 | 326 | 4.0 | 6.0 | 0.00 | 0.02 | 0.02 | 79 | 1020.9 |
| 20260902150336 | 87 | 136 | 1.0 | 1.0 | 0.00 | 0.02 | 0.02 | 79 | 1021.1 |
| 20260902145835 | 87 | 150 | 0.0 | 1.0 | 0.00 | 0.02 | 0.02 | 80 | 1020.8 |
| 20260902145330 | 86 | 299 | 2.0 | 2.0 | 0.00 | 0.02 | 0.02 | 79 | 1021.0 |
| 20260902144826 | 86 | 76 | 2.0 | 2.0 | 0.00 | 0.02 | 0.02 | 80 | 1020.8 |
| 20260902144321 | 86 | 146 | 1.0 | 1.0 | 0.00 | 0.02 | 0.02 | 83 | 1020.6 |
| 20260902143816 | 84 | 150 | 0.0 | 1.0 | 0.00 | 0.02 | 0.02 | 84 | 1020.7 |
| 20260902143311 | 84 | 170 | 0.0 | 1.0 | 0.00 | 0.02 | 0.02 | 86 | 1020.9 |
| 20260902142807 | 85 | 122 | 1.0 | 1.0 | 0.00 | 0.02 | 0.02 | 86 | 1020.7 |
| 20260902142306 | 85 | 123 | 0.0 | 0.0 | 0.07 | 0.02 | 0.02 | 86 | 1020.4 |
| 20260902141803 | 85 | 170 | 1.0 | 1.0 | 0.07 | 0.02 | 0.02 | 84 | 1020.9 |
| 20260902141258 | 85 | 105 | 2.0 | 2.0 | 0.00 | 0.01 | 0.01 | 83 | 1020.6 |
| 20260902140752 | 86 | 148 | 0.0 | 0.0 | 0.00 | 0.01 | 0.01 | 82 | 1020.8 |
| 20260902140248 | 86 | 144 | 0.0 | 1.0 | 0.00 | 0.01 | 0.01 | 81 | 1020.5 |
| 20260902135747 | 85 | 146 | 0.0 | 1.0 | 0.00 | 0.01 | 0.01 | 84 | 1020.5 |
| 20260902135243 | 85 | 135 | 0.0 | 1.0 | 0.00 | 0.01 | 0.01 | 83 | 1020.4 |
| 20260902134742 | 86 | 132 | 1.0 | 1.0 | 0.00 | 0.01 | 0.01 | 82 | 1020.7 |
| 20260902134238 | 86 | 122 | 0.0 | 1.0 | 0.00 | 0.01 | 0.01 | 82 | 1020.5 |
| 20260902133733 | 85 | 91 | 2.0 | 2.0 | 0.00 | 0.01 | 0.01 | 83 | 1020.5 |
| 20260902133232 | 84 | 176 | 1.0 | 2.0 | 0.00 | 0.01 | 0.01 | 86 | 1020.4 |
| 20260902132727 | 83 | 151 | 0.0 | 0.0 | 0.00 | 0.01 | 0.01 | 91 | 1020.4 |
| 20260902132223 | 81 | 144 | 0.0 | 1.0 | 0.00 | 0.01 | 0.01 | 93 | 1020.4 |
| 20260902131718 | 80 | 151 | 0.0 | 0.0 | 0.00 | 0.01 | 0.01 | 94 | 1020.5 |
| 20260902131214 | 79 | 151 | 0.0 | 0.0 | 0.00 | 0.01 | 0.01 | 94 | 1020.7 |
| 20260902130709 | 79 | 153 | 0.0 | 1.0 | 0.00 | 0.01 | 0.01 | 94 | 1020.7 |
| 20260902130205 | 80 | 161 | 0.0 | 0.0 | 0.00 | 0.01 | 0.01 | 95 | 1020.5 |
| 20260902125659 | 79 | 154 | 0.0 | 0.0 | 0.00 | 0.01 | 0.01 | 95 | 1020.4 |
| 20260902125156 | 79 | 153 | 0.0 | 1.0 | 0.07 | 0.01 | 0.01 | 95 | 1020.4 |
| 20260902124652 | 79 | 67 | 1.0 | 2.0 | 0.07 | 0.01 | 0.01 | 95 | 1020.6 |
| 20260902124152 | 79 | 121 | 1.0 | 2.0 | 0.00 | 0.00 | 0.00 | 95 | 1020.5 |
| 20260902123647 | 79 | 141 | 0.0 | 0.0 | 0.00 | 0.00 | 0.00 | 96 | 1020.5 |
| 20260902123142 | 79 | 161 | 0.0 | 0.0 | 0.00 | 0.00 | 0.00 | 96 | 1020.4 |
| 20260902122636 | 79 | 158 | 0.0 | 0.0 | 0.00 | 0.00 | 0.00 | 96 | 1020.4 |
| 20260902122132 | 79 | 154 | 0.0 | 0.0 | 0.00 | 0.00 | 0.00 | 96 | 1020.1 |
| 20260902121627 | 78 | 157 | 0.0 | 0.0 | 0.00 | 0.00 | 0.00 | 96 | 1020.4 |
| 20260902121122 | 78 | 156 | 0.0 | 0.0 | 0.00 | 0.00 | 0.00 | 96 | 1020.3 |
| 20260902120618 | 78 | 163 | 0.0 | 0.0 | 0.00 | 0.00 | 0.00 | 96 | 1020.2 |
| 20260902120114 | 78 | 154 | 0.0 | 0.0 | 0.00 | 0.00 | 0.00 | 96 | 1020.1 |
| 20260902115609 | 78 | 166 | 0.0 | 0.0 | 0.00 | 0.00 | 0.00 | 96 | 1020.3 |
| 20260902115105 | 78 | 146 | 0.0 | 0.0 | 0.00 | 0.00 | 0.00 | 96 | 1020.2 |
| 20260902114601 | 78 | 156 | 0.0 | 0.0 | 0.00 | 0.00 | 0.00 | 96 | 1020.2 |
| 20260902114100 | 78 | 155 | 0.0 | 0.0 | 0.00 | 0.00 | 0.00 | 96 | 1020.1 |
| 20260902113556 | 78 | 155 | 0.0 | 0.0 | 0.00 | 0.00 | 0.00 | 96 | 1020.2 |
| 20260902113051 | 77 | 155 | 0.0 | 0.0 | 0.00 | 0.00 | 0.00 | 96 | 1020.0 |
| 20260902112546 | 77 | 155 | 0.0 | 0.0 | 0.00 | 0.00 | 0.00 | 96 | 1020.3 |
| 20260902112043 | 77 | 155 | 0.0 | 0.0 | 0.00 | 0.00 | 0.00 | 96 | 1020.1 |
| 20260902111539 | 77 | 155 | 0.0 | 0.0 | 0.00 | 0.00 | 0.00 | 96 | 1019.9 |
| 20260902111034 | 77 | 155 | 0.0 | 0.0 | 0.00 | 0.00 | 0.00 | 96 | 1020.0 |
| 20260902110530 | 77 | 155 | 0.0 | 0.0 | 0.00 | 0.00 | 0.00 | 96 | 1019.8 |
| 20260902110026 | 77 | 155 | 0.0 | 0.0 | 0.00 | 0.00 | 0.00 | 96 | 1020.0 |
| 20260902105525 | 78 | 155 | 0.0 | 0.0 | 0.00 | 0.00 | 0.00 | 96 | 1019.7 |
| 20260902105020 | 77 | 155 | 0.0 | 0.0 | 0.00 | 0.00 | 0.00 | 96 | 1020.0 |
| 20260902104516 | 77 | 155 | 0.0 | 0.0 | 0.00 | 0.00 | 0.00 | 96 | 1019.7 |
| 20260902104016 | 77 | 155 | 0.0 | 0.0 | 0.00 | 0.00 | 0.00 | 96 | 1019.7 |
| 20260902103511 | 77 | 155 | 0.0 | 0.0 | 0.00 | 0.00 | 0.00 | 96 | 1019.8 |
| 20260902103007 | 77 | 155 | 0.0 | 0.0 | 0.00 | 0.00 | 0.00 | 96 | 1019.9 |
| 20260902102503 | 77 | 155 | 0.0 | 0.0 | 0.00 | 0.00 | 0.00 | 96 | 1019.4 |
| 20260902101959 | 77 | 155 | 0.0 | 0.0 | 0.00 | 0.00 | 0.00 | 96 | 1019.6 |
| 20260902101454 | 77 | 155 | 0.0 | 0.0 | 0.00 | 0.00 | 0.00 | 96 | 1019.6 |
| 20260902100953 | 77 | 163 | 0.0 | 0.0 | 0.00 | 0.00 | 0.00 | 96 | 1019.6 |
| 20260902100448 | 78 | 163 | 0.0 | 0.0 | 0.00 | 0.00 | 0.00 | 96 | 1019.6 |
| 20260902095948 | 78 | 150 | 0.0 | 0.0 | 0.00 | 0.00 | 0.00 | 96 | 1019.6 |
| 20260902095442 | 78 | 150 | 0.0 | 0.0 | 0.00 | 0.00 | 0.00 | 96 | 1019.3 |
| 20260902094941 | 78 | 148 | 0.0 | 0.0 | 0.00 | 0.00 | 0.00 | 96 | 1019.4 |
| 20260902094437 | 78 | 163 | 0.0 | 0.0 | 0.00 | 0.00 | 0.00 | 96 | 1019.3 |
| 20260902093932 | 78 | 164 | 0.0 | 0.0 | 0.00 | 0.00 | 0.00 | 96 | 1019.2 |
| 20260902093427 | 77 | 164 | 0.0 | 0.0 | 0.00 | 0.00 | 0.00 | 96 | 1019.5 |
| 20260902092926 | 77 | 162 | 0.0 | 0.0 | 0.00 | 0.00 | 0.00 | 95 | 1019.2 |
| 20260902092417 | 77 | 162 | 0.0 | 0.0 | 0.00 | 0.00 | 0.00 | 95 | 1019.3 |
| 20260902091916 | 77 | 162 | 0.0 | 0.0 | 0.00 | 0.00 | 0.00 | 95 | 1019.3 |
| 20260902091412 | 77 | 161 | 0.0 | 0.0 | 0.00 | 0.00 | 0.00 | 95 | 1019.0 |
| 20260902090909 | 77 | 162 | 0.0 | 0.0 | 0.00 | 0.00 | 0.00 | 95 | 1019.1 |
| 20260902090408 | 77 | 162 | 0.0 | 0.0 | 0.00 | 0.00 | 0.00 | 95 | 1019.1 |
| 20260902085907 | 77 | 159 | 0.0 | 0.0 | 0.00 | 0.00 | 0.00 | 95 | 1019.2 |
| 20260902085403 | 77 | 159 | 0.0 | 0.0 | 0.00 | 0.00 | 0.00 | 95 | 1019.1 |
| 20260902084858 | 78 | 159 | 0.0 | 0.0 | 0.00 | 0.00 | 0.00 | 95 | 1018.8 |
| 20260902084354 | 77 | 159 | 0.0 | 0.0 | 0.00 | 0.00 | 0.00 | 95 | 1018.8 |
| 20260902083849 | 78 | 159 | 0.0 | 0.0 | 0.00 | 0.00 | 0.00 | 95 | 1018.9 |
| 20260902083349 | 78 | 159 | 0.0 | 0.0 | 0.00 | 0.00 | 0.00 | 95 | 1019.1 |
| 20260902082844 | 78 | 159 | 0.0 | 0.0 | 0.00 | 0.00 | 0.00 | 95 | 1019.0 |
| 20260902082340 | 78 | 159 | 0.0 | 0.0 | 0.00 | 0.00 | 0.00 | 95 | 1019.2 |
| 20260902081836 | 77 | 156 | 0.0 | 0.0 | 0.00 | 0.00 | 0.00 | 95 | 1018.9 |
| 20260902081332 | 78 | 156 | 0.0 | 0.0 | 0.00 | 0.00 | 0.00 | 95 | 1019.2 |
| 20260902080827 | 78 | 156 | 0.0 | 0.0 | 0.00 | 0.00 | 0.00 | 95 | 1019.0 |
| 20260902080324 | 78 | 156 | 0.0 | 0.0 | 0.00 | 0.00 | 0.00 | 95 | 1019.3 |
| 20260902075822 | 78 | 158 | 0.0 | 0.0 | 0.00 | 0.00 | 0.00 | 95 | 1019.2 |
| 20260902075319 | 78 | 147 | 0.0 | 0.0 | 0.00 | 0.00 | 0.00 | 95 | 1019.0 |
| 20260902074814 | 77 | 161 | 0.0 | 0.0 | 0.00 | 0.00 | 0.00 | 95 | 1019.1 |
| 20260902074310 | 78 | 161 | 0.0 | 0.0 | 0.00 | 0.00 | 0.00 | 95 | 1019.4 |
| 20260902073804 | 78 | 162 | 0.0 | 0.0 | 0.00 | 0.00 | 0.00 | 95 | 1019.2 |
| 20260902073300 | 78 | 149 | 0.0 | 0.0 | 0.00 | 0.00 | 0.00 | 95 | 1019.1 |
| 20260902072756 | 78 | 149 | 0.0 | 0.0 | 0.00 | 0.00 | 0.00 | 95 | 1019.1 |
| 20260902072251 | 78 | 149 | 0.0 | 0.0 | 0.00 | 0.00 | 0.00 | 95 | 1019.1 |
| 20260902071748 | 78 | 149 | 0.0 | 0.0 | 0.00 | 0.00 | 0.00 | 95 | 1019.1 |
| 20260902071243 | 77 | 149 | 0.0 | 0.0 | 0.00 | 0.00 | 0.00 | 95 | 1019.5 |
| 20260902070739 | 78 | 149 | 0.0 | 0.0 | 0.00 | 0.00 | 0.00 | 95 | 1019.3 |
| 20260902070239 | 78 | 149 | 0.0 | 0.0 | 0.00 | 0.00 | 0.00 | 95 | 1019.4 |
| 20260902065738 | 78 | 149 | 0.0 | 0.0 | 0.00 | 0.00 | 0.00 | 95 | 1019.2 |
| 20260902065233 | 78 | 149 | 0.0 | 0.0 | 0.00 | 0.00 | 0.00 | 95 | 1019.6 |
| 20260902064728 | 78 | 149 | 0.0 | 0.0 | 0.00 | 0.00 | 0.00 | 95 | 1019.3 |
| 20260902064224 | 78 | 149 | 0.0 | 0.0 | 0.00 | 0.00 | 0.00 | 95 | 1019.4 |